SCP
1 1 0 0 0 0 0 0 0 0 0 0 0 0 0 0 0 1 1 2 2 2 2 2 2 2 3 2 2 2 2 2 3 3 3 3 2 2 2 2 2 2 2 2 2 2 2 1 1
1 1 0 0 0 0 0 0 0 0 0 0 0 0 0 0 0 1 1 2 2 2 2 2 2 2 2 2 2 2 2 2 2 3 3 3 2 2 2 2 2 2 2 2 2 2 2 2 1
1 1 0 0 0 0 0 0 0 0 0 0 0 0 0 0 0 1 2 2 2 2 2 2 2 2 2 2 2 2 2 2 2 3 3 2 2 2 2 2 2 2 2 2 3 3 2 2 1
1 1 0 0 0 0 0 0 0 0 0 0 0 0 0 0 1 1 3 3 3 3 2 2 3 3 3 2 2 2 2 2 2 3 3 2 2 2 2 2 2 2 2 2 2 3 2 2 2
1 0 0 0 0 0 0 0 0 0 0 0 0 0 0 1 1 1 3 4 3 3 2 3 3 3 3 2 2 2 2 2 2 2 2 2 2 2 2 2 2 2 2 2 2 3 3 2 2
1 0 0 0 0 0 0 0 0 0 0 0 0 0 0 1 1 1 2 3 3 3 3 3 3 3 3 3 2 2 2 2 2 2 2 2 2 2 2 2 2 2 2 2 2 3 3 2 2
0 0 0 0 0 0 0 0 0 0 0 0 0 0 0 1 1 1 1 1 2 3 3 3 3 3 3 3 2 2 2 2 2 2 2 2 2 2 2 2 2 1 2 2 2 3 3 2 2
0 0 0 0 0 0 0 0 0 0 0 0 0 0 0 1 1 1 1 1 1 2 2 2 2 3 3 3 2 2 2 2 2 2 2 2 2 2 2 2 1 1 1 2 2 3 3 3 2
0 0 0 0 0 0 0 0 0 0 0 0 0 0 0 1 1 1 1 1 1 1 1 2 2 2 2 2 2 2 2 2 2 2 2 2 2 2 2 1 1 1 1 2 2 3 3 3 2
0 0 0 0 0 0 0 0 0 0 0 0 0 0 1 1 1 1 1 0 0 0 0 1 2 2 2 2 2 2 2 2 2 2 2 1 1 1 1 1 1 1 1 1 2 3 3 2 2
0 0 0 0 0 0 0 0 0 0 0 0 0 0 1 1 1 1 1 0 0 0 0 0 1 1 2 2 2 2 2 2 2 2 2 2 1 1 1 1 1 1 1 1 1 2 2 2 1
0 0 0 1 1 0 0 0 0 0 0 0 0 0 1 1 1 1 1 0 0 0 0 0 1 1 1 2 2 2 2 2 2 2 2 2 1 1 1 1 1 0 0 1 1 1 1 1 1
0 0 0 1 1 1 0 0 0 0 0 0 0 0 1 1 1 1 1 0 0 0 0 0 1 1 1 2 2 2 2 2 2 2 2 2 2 1 1 1 1 0 0 1 1 1 1 1 1
0 0 0 1 1 1 0 0 0 0 0 0 0 0 1 1 1 1 1 0 0 0 0 0 1 1 1 1 1 1 1 1 1 2 2 2 1 1 1 1 1 0 0 1 1 1 1 1 1
1 0 0 1 1 1 0 0 0 0 0 0 0 0 0 1 1 1 1 1 0 0 0 0 0 0 0 0 1 1 1 1 1 1 2 2 1 1 1 1 0 0 1 1 1 1 1 1 1
1 0 0 0 0 0 0 0 0 0 0 0 0 0 0 0 1 1 1 1 1 0 0 0 0 0 0 0 0 1 1 1 1 1 1 1 1 1 1 1 0 0 1 1 1 1 1 1 1
0 0 0 0 0 0 0 0 0 0 0 0 0 0 0 0 0 1 1 1 1 0 0 0 0 0 0 0 0 0 1 1 1 1 1 1 1 1 1 1 0 0 1 1 1 1 1 1 1
0 0 0 0 0 0 0 0 0 0 0 0 0 0 0 0 0 1 1 1 1 0 0 0 0 0 0 0 0 0 0 0 1 1 0 0 0 1 1 1 0 1 1 1 1 1 1 0 0
0 0 0 0 0 0 0 0 0 0 0 0 0 0 0 0 0 0 1 1 1 0 0 0 0 0 0 0 0 0 0 0 0 0 0 0 0 1 1 1 0 1 1 1 1 1 0 0 0
0 0 0 0 0 0 0 0 0 0 0 0 0 0 0 0 0 0 1 1 1 0 0 0 0 0 0 0 0 0 0 0 0 0 0 0 0 0 1 0 0 1 1 2 1 1 0 0 0
0 0 0 0 0 0 0 0 0 0 0 0 0 0 0 0 0 0 0 0 0 0 0 0 0 0 0 0 0 0 0 0 0 0 0 0 0 0 0 0 0 1 1 2 2 1 0 0 0
0 0 0 0 0 0 0 0 0 0 0 0 0 0 0 0 0 0 0 0 0 0 0 0 0 0 0 0 0 0 0 0 0 0 0 0 0 0 0 0 0 1 1 2 1 0 0 0 0
0 0 0 0 0 0 0 0 0 0 0 0 0 0 0 0 0 0 0 1 1 0 0 0 0 0 0 0 0 0 0 0 0 0 0 0 0 0 0 0 0 0 1 2 1 0 0 0 0
0 0 0 0 0 0 0 0 0 0 0 0 0 0 0 0 0 0 1 1 1 0 0 0 0 0 0 0 0 0 0 0 0 0 0 0 0 0 0 0 0 0 1 1 1 0 0 0 0
0 0 0 0 0 0 0 0 0 0 0 0 0 0 0 0 0 1 1 1 1 0 0 0 0 0 0 0 0 0 0 0 0 0 0 0 0 0 0 0 0 0 1 1 0 0 0 0 0
0 0 0 0 0 0 0 0 0 0 0 0 0 0 0 0 0 1 1 1 1 1 0 0 0 0 0 0 0 0 0 0 0 0 0 0 0 0 0 0 0 0 0 0 0 0 0 0 0
0 0 0 0 0 0 0 0 0 0 0 0 0 0 0 0 0 1 1 1 1 1 1 1 1 1 0 0 0 0 0 0 0 0 0 0 0 0 0 0 0 0 0 0 0 0 0 0 0
0 0 0 0 0 0 0 0 0 0 0 0 0 0 0 0 0 0 1 1 1 1 1 1 1 1 0 0 0 0 0 0 0 0 0 0 0 0 0 0 0 0 0 0 0 0 0 0 0
0 0 0 0 0 0 0 0 0 0 0 0 0 0 0 0 0 0 1 1 1 0 0 0 0 0 0 0 0 0 0 0 0 0 0 0 0 0 0 0 0 0 0 0 0 0 0 0 0
0 0 0 0 0 0 0 0 0 0 0 0 0 0 0 0 0 0 0 0 0 0 0 0 0 0 0 0 0 0 0 0 0 0 0 0 0 0 0 0 0 0 0 0 0 0 0 0 0
Wind_Speed
8 5 2 4 6 4 2 4 2 1 1 1 1 4 5 3 2 3 1 2 5 5 4 5 7 8 9 9 9 10 10 10 10 10 11 11 11 11 11 11 11 11 11 11 11 11 11 11 11
3 3 4 5 5 1 4 4 3 3 3 0 3 4 4 3 2 4 1 1 5 5 4 5 7 9 9 9 9 10 10 10 10 10 10 10 10 10 11 11 10 10 11 11 11 11 11 11 11
3 2 4 4 3 5 5 3 2 1 0 1 3 4 3 2 2 1 0 2 4 4 3 4 8 8 9 9 9 9 10 9 9 9 10 10 10 10 10 10 10 10 10 10 10 10 10 10 10
3 4 4 3 4 4 4 2 1 1 2 3 3 4 2 2 1 0 1 4 5 4 3 4 7 8 9 9 9 9 9 9 9 9 9 10 10 9 9 9 9 9 9 9 9 9 10 10 10
3 4 3 1 3 3 3 3 1 1 1 2 3 3 1 3 4 4 4 4 5 3 3 3 6 6 8 8 8 8 8 9 9 9 9 9 9 9 9 8 8 9 9 9 9 9 10 9 9
4 4 3 3 4 3 2 2 1 1 1 1 3 3 1 2 5 4 4 4 3 3 3 3 5 5 5 7 7 7 7 8 8 9 8 8 8 8 9 8 8 8 8 8 9 9 9 9 8
4 3 3 4 3 2 2 2 1 1 1 1 1 4 1 2 3 3 3 4 4 3 2 2 2 3 3 4 6 6 7 7 7 8 8 8 7 7 8 8 8 7 7 8 8 8 8 8 7
4 3 2 2 2 2 1 1 1 1 0 2 2 4 2 2 1 3 4 5 4 4 3 2 1 2 2 2 4 5 6 6 7 7 7 7 7 6 7 6 7 7 7 7 7 7 7 7 6
3 3 3 3 3 2 0 1 2 1 2 3 3 1 1 2 3 5 5 5 4 4 3 2 2 1 1 2 2 3 4 5 6 5 6 6 3 3 4 4 6 6 6 7 7 7 6 6 5
3 3 5 2 2 1 1 0 0 1 2 1 2 3 4 4 5 4 3 3 3 3 3 2 2 1 1 1 1 1 2 2 3 3 3 3 3 2 3 4 5 5 5 6 6 6 5 4 2
2 4 3 2 1 0 0 1 1 2 1 3 3 2 2 3 3 3 2 1 1 1 2 3 3 1 1 1 1 0 1 1 2 3 3 3 3 2 2 2 2 3 3 3 3 3 2 2 1
1 3 2 2 2 1 1 1 1 1 4 3 4 4 3 3 2 1 1 0 1 2 2 2 3 2 1 1 1 1 1 1 1 2 3 3 2 2 2 2 2 2 2 2 2 2 2 2 1
2 2 2 2 2 1 0 1 1 3 3 2 3 3 3 3 2 1 1 1 1 2 2 2 2 3 1 1 1 1 1 1 2 2 2 3 3 3 2 2 2 2 2 2 2 2 2 1 1
2 2 3 3 2 1 2 2 1 4 2 3 4 3 2 2 1 1 2 1 1 1 2 2 2 3 2 1 1 1 0 1 1 2 2 3 3 3 3 3 2 2 2 2 2 2 2 1 1
0 1 4 3 2 2 1 3 4 4 2 3 2 2 1 1 1 1 1 0 0 1 1 2 1 2 1 1 0 0 0 1 1 1 2 3 3 3 3 3 3 2 2 2 2 2 2 1 1
2 1 2 4 1 1 2 5 4 2 4 2 1 0 1 1 1 1 0 0 1 1 1 1 1 1 1 1 1 0 0 1 1 1 1 2 2 3 3 3 3 3 2 2 2 2 2 1 1
1 1 3 4 1 1 2 5 3 1 2 2 2 1 1 1 1 1 1 0 0 1 1 1 1 0 0 1 1 0 0 0 1 1 1 1 2 3 3 3 3 3 3 2 2 2 2 1 1
4 3 3 4 3 1 2 5 4 3 3 4 3 2 1 1 1 1 1 1 1 1 1 1 1 1 1 1 1 1 1 0 0 1 1 1 1 2 2 2 3 4 3 2 2 2 1 1 1
3 3 3 5 3 1 3 5 6 3 2 3 2 2 2 1 1 1 2 2 3 2 2 1 1 1 1 1 1 0 1 1 1 0 1 1 1 1 1 1 2 3 3 3 3 2 2 1 1
3 2 3 3 2 1 2 5 5 3 3 4 4 3 2 0 2 3 3 3 3 2 2 2 1 1 0 0 1 1 0 1 1 0 0 1 2 2 2 2 2 2 3 4 3 3 2 1 1
3 4 3 3 4 2 1 5 3 2 1 0 1 1 1 1 0 1 2 2 2 3 2 2 1 1 1 1 1 1 1 1 0 0 0 0 1 2 2 2 2 2 3 3 4 4 3 2 1
4 3 3 2 0 3 1 3 5 2 1 1 0 1 1 1 1 1 1 2 2 2 2 2 1 1 1 1 1 1 1 0 1 0 1 1 1 1 1 2 2 2 2 3 4 4 2 3 2
4 1 1 2 2 1 1 2 6 1 2 3 2 1 1 1 1 1 1 1 2 2 2 2 2 2 1 1 1 2 1 0 0 1 1 1 0 1 1 2 2 2 2 3 3 4 3 3 3
1 3 4 4 3 2 4 4 5 3 4 3 2 1 0 0 1 1 2 2 3 3 3 3 2 2 2 2 1 2 1 1 1 1 1 1 1 1 1 2 2 3 2 3 3 4 4 4 3
3 5 3 4 3 5 2 3 6 4 2 3 3 2 0 1 1 2 3 3 3 3 3 3 2 2 2 2 1 0 1 1 1 1 1 1 1 1 1 1 2 2 3 2 2 3 4 4 4
2 5 6 4 4 4 2 3 5 2 1 1 1 2 2 1 1 1 1 2 2 3 3 2 2 2 2 1 1 0 0 0 0 1 1 1 1 2 2 2 2 3 3 3 2 2 4 4 4
3 2 3 4 1 1 4 4 5 1 3 3 3 3 1 1 1 1 1 2 2 2 3 2 2 2 1 1 1 1 1 0 1 1 1 1 2 2 2 2 2 3 3 3 3 2 3 3 4
2 4 4 4 3 3 4 4 4 3 2 1 1 0 1 1 1 2 2 2 2 2 2 2 2 1 1 1 1 1 1 1 1 1 1 2 2 2 2 2 3 3 3 3 3 2 3 3 3
2 2 3 3 3 4 3 6 3 4 3 2 2 1 1 1 1 2 2 2 3 3 3 3 3 3 2 1 1 1 1 1 1 1 2 2 2 2 2 2 3 3 3 3 2 3 3 3 3
2 3 5 4 3 3 3 7 2 1 1 2 2 1 1 1 1 2 2 2 3 3 3 2 2 2 2 2 2 1 2 1 1 2 2 2 2 2 2 2 2 2 2 2 3 3 3 3 4
Wind_Direction
336 340 49 57 58 56 239 251 240 300 320 289 52 93 108 97 120 149 147 130 132 149 158 147 134 123 119 119 121 122 119 115 117 119 118 116 115 115 113 110 111 113 114 113 112 111 108 109 109
338 1 54 62 94 146 257 250 240 248 215 261 32 64 77 70 61 96 73 132 134 143 148 148 136 128 123 120 122 125 123 121 118 119 122 121 118 117 114 113 111 113 115 113 111 110 110 109 109
334 60 83 83 139 186 217 232 216 276 16 76 46 39 77 77 52 111 269 130 123 130 136 151 135 130 127 124 122 125 126 125 124 122 126 125 123 121 118 116 113 112 115 115 113 112 111 111 110
51 51 60 92 210 225 209 237 251 13 18 42 89 62 46 28 37 8 82 102 109 125 134 146 135 138 136 133 128 124 127 126 125 125 124 127 126 123 121 118 114 112 113 113 112 112 113 111 108
61 81 83 192 234 248 244 261 270 72 9 18 84 96 48 6 34 53 66 92 104 112 127 147 137 141 142 138 136 130 133 132 129 125 122 121 124 122 120 117 114 113 112 114 112 111 109 106 106
61 79 116 212 230 250 276 291 29 56 41 30 82 101 132 16 45 44 53 68 93 105 116 126 129 130 141 147 143 138 138 137 136 133 130 124 124 125 124 120 116 115 116 117 114 114 115 110 105
106 115 174 197 212 245 272 323 77 77 40 349 107 109 157 349 26 47 56 62 70 66 74 116 130 130 126 137 144 145 143 141 137 136 135 130 127 131 130 125 121 118 116 118 116 113 113 114 107
129 118 180 207 197 225 282 19 55 79 345 346 74 129 190 263 10 52 51 48 54 54 44 48 79 114 124 132 136 140 141 141 139 138 134 131 128 131 129 122 124 124 118 120 120 116 114 114 109
95 94 202 208 193 223 315 47 353 15 75 23 35 74 167 119 74 58 45 34 35 37 30 30 40 61 101 120 130 138 139 142 142 140 136 133 132 129 126 121 123 129 127 126 120 117 112 111 104
98 165 216 219 196 199 325 65 244 47 29 21 24 32 62 77 77 72 58 42 33 23 15 12 32 43 74 120 126 153 147 145 143 143 143 139 129 127 125 129 127 126 125 127 119 112 109 92 80
153 197 219 262 261 202 300 321 329 140 252 220 192 156 101 79 78 83 72 60 30 17 16 7 19 25 70 72 118 122 138 143 142 145 144 136 126 125 121 135 132 122 118 121 114 102 88 75 72
178 249 234 260 312 312 260 264 332 205 219 202 173 155 132 117 125 135 131 78 4 29 20 15 27 21 54 70 109 129 144 155 152 155 148 139 137 138 142 144 140 137 135 133 126 118 100 90 94
214 259 285 263 295 263 102 248 226 242 229 146 128 126 140 143 145 163 129 105 47 26 11 17 24 25 25 66 69 90 150 164 160 161 159 148 148 154 154 150 146 150 143 147 146 137 129 125 117
205 251 286 277 260 234 173 265 230 247 182 124 124 137 160 158 146 86 62 46 22 15 9 15 34 20 20 63 70 86 106 151 156 157 161 154 155 160 163 158 156 153 154 152 156 156 147 151 144
72 348 320 285 243 212 112 303 237 232 147 131 133 126 117 105 90 110 151 151 329 342 13 19 31 27 20 14 2 61 143 147 160 175 172 162 158 163 164 160 159 160 151 144 140 132 123 126 126
37 49 293 282 224 204 133 256 260 208 138 145 180 145 94 47 66 101 109 40 31 26 360 4 16 42 11 8 339 340 10 162 166 172 169 167 162 162 163 160 162 156 147 146 148 141 138 139 148
27 243 248 286 253 178 176 245 259 234 152 185 219 221 160 33 14 4 10 8 36 49 6 20 21 89 20 20 357 331 18 215 187 165 151 167 173 167 168 173 166 156 153 155 151 137 149 161 184
222 230 241 252 263 184 234 259 277 251 202 215 215 196 194 207 281 322 8 21 38 27 31 43 8 18 45 35 28 16 21 285 210 177 171 156 171 170 164 174 172 160 158 158 151 149 148 164 169
198 198 250 261 264 248 242 270 280 271 213 206 210 197 210 235 293 14 26 29 31 24 27 41 16 329 54 58 52 348 276 249 230 193 143 145 149 143 130 160 175 167 165 163 160 157 156 132 108
211 239 262 289 306 265 270 286 286 259 211 196 188 186 191 111 11 21 32 37 32 23 14 24 16 319 270 230 184 186 229 243 199 131 68 133 145 140 131 121 146 155 152 148 154 151 158 146 130
238 211 223 260 330 349 15 308 306 313 269 145 176 174 176 154 137 13 19 14 16 11 2 343 328 326 346 25 73 54 48 22 65 39 310 233 175 156 144 147 149 164 167 164 168 168 167 176 208
243 215 202 216 35 283 153 284 284 271 292 276 283 91 139 111 93 84 51 5 353 335 345 351 1 3 356 82 115 123 146 215 266 287 279 288 200 172 164 161 173 178 182 181 183 174 171 167 186
216 202 192 197 174 301 270 205 284 303 259 256 242 214 196 151 109 79 55 357 346 355 360 2 24 13 9 51 131 142 144 144 338 359 345 308 272 215 180 179 194 198 201 204 195 181 175 176 188
141 55 45 49 73 286 236 183 274 253 236 240 240 248 264 64 58 29 14 20 9 7 7 6 23 21 29 47 79 121 132 114 71 2 328 317 290 258 216 199 211 216 216 214 210 198 191 194 195
84 92 39 3 1 254 237 186 252 266 243 201 199 223 204 100 73 36 20 14 5 2 3 2 14 18 29 49 57 88 145 141 163 203 290 313 292 270 257 242 236 232 228 224 219 211 204 201 199
189 143 157 192 223 276 315 230 263 298 342 72 124 128 101 86 63 45 13 359 353 351 353 360 2 358 12 23 3 333 314 227 242 242 239 263 279 264 254 245 253 248 234 227 217 222 217 208 208
159 180 166 135 133 280 273 282 297 343 32 43 62 68 63 38 19 4 359 3 357 346 335 332 339 343 350 350 348 344 341 289 293 303 291 283 285 274 249 244 245 242 230 220 214 227 226 215 215
168 149 109 127 162 247 276 258 243 248 258 350 31 26 312 328 344 346 352 351 343 331 330 340 346 334 341 343 309 333 316 296 296 288 282 282 278 278 257 243 243 239 229 213 210 232 232 226 226
161 157 142 144 169 176 251 263 231 214 214 213 235 244 245 262 297 318 334 342 346 349 356 357 356 355 350 346 339 337 314 309 308 291 283 278 276 270 271 255 249 246 233 216 208 230 234 227 230
195 186 156 166 222 193 209 266 307 239 195 191 226 253 275 295 317 328 336 345 353 351 347 346 340 341 336 338 338 331 322 331 326 303 289 274 272 274 268 273 277 267 245 222 210 224 231 227 225